Location: Nordegg
(52.4712°N, 116.0743°W)
Time: 09:13:15
(UTC+00:00)

Envisat - Pass Details

Date: 08 December 2021
Orbit: 764 x 766 km, 98.2° (Epoch: 25 January)

Event Time Altitude Azimuth Distance (km) Brightness Sun altitude
Rises 13:01:23 0° 14° (NNE) 3,248 6.3 -23.1°
Reaches altitude 10° 13:03:42 10° 15° (NNE) 2,317 5.5 -22.7°
Maximum altitude 13:08:50 89° 288° (WNW) 774 2.9 -22.0°
Drops below altitude 10° 13:13:55 10° 197° (SSW) 2,299 5.4 -21.2°
Sets 13:16:12 0° 197° (SSW) 3,220 6.2 -20.9°
